Change the Weather History Date:

Saturday, November 8, 2014

  Actual Average Record
Temperature  
Mean Temperature 39 °F -  
Max Temperature 48 °F 53 °F 68 °F (1996)
Min Temperature 30 °F 37 °F 26 °F (2007)
Degree Days  
Heating Degree Days 26    
Moisture  
Dew Point 23 °F    
Average Humidity 51    
Maximum Humidity 65    
Minimum Humidity 39    
Precipitation  
Precipitation 0.00 in - - ()
Sea Level Pressure  
Sea Level Pressure 29.99 in    
Wind  
Wind Speed 7 mph (WSW)    
Max Wind Speed 13 mph    
Max Gust Speed 18 mph    
Visibility 10 miles    
Events      
Averages and records for this station are not official NWS values.
T = Trace of Precipitation, MM = Missing Value Source: NWS Daily Summary

Daily Weather History Graph

Daily Weather History Graph

Search for Another Location

Airport or City:

Trip Planner

Search our weather history database for the weather conditions in past years. The results will help you decide how hot, cold, wet, or windy it might be!

Date:

Astronomy

Nov. 08, 2014 Rise Set
Actual Time 6:33 AM EST 4:46 PM EST
Civil Twilight 6:05 AM EST 5:14 PM EST
Nautical Twilight 5:32 AM EST 5:47 PM EST
Astronomical Twilight 5:00 AM EST 6:18 PM EST
Moon 6:25 PM EST (11/8) 8:07 AM EST (11/8)
Length of Visible Light 11h 09m
Length of Day
10h 12m
Waning Gibbous, 96% of the Moon is Illuminated
Nov 8
Waning Gibbous
Nov 14
Last Quarter
Nov 22
New
Nov 29
First Quarter
Dec 6
Full

Hourly Weather History & Observations

Time (EST) Temp. Windchill Dew Point Humidity Pressure Visibility Wind Dir Wind Speed Gust Speed Precip Events Conditions
12:15 AM 35.6 °F 30.7 °F 23.0 °F 60% 29.97 in 10.0 mi WNW 5.8 mph - N/A   Clear
12:35 AM 35.6 °F 29.9 °F 21.2 °F 56% 29.97 in 10.0 mi West 6.9 mph - N/A   Clear
12:55 AM 35.6 °F 29.9 °F 21.2 °F 56% 29.97 in 10.0 mi West 6.9 mph - N/A   Clear
1:15 AM 35.6 °F 29.9 °F 21.2 °F 56% 29.98 in 10.0 mi WNW 6.9 mph - N/A   Clear
1:35 AM 35.6 °F 28.6 °F 21.2 °F 56% 29.96 in 10.0 mi WNW 9.2 mph - N/A   Clear
1:55 AM 35.6 °F 29.2 °F 21.2 °F 56% 29.97 in 10.0 mi West 8.1 mph - N/A   Clear
2:15 AM 33.8 °F 27.7 °F 21.2 °F 60% 29.98 in 10.0 mi West 6.9 mph - N/A   Clear
2:35 AM 33.8 °F 27.0 °F 21.2 °F 60% 29.99 in 10.0 mi West 8.1 mph - N/A   Clear
2:55 AM 33.8 °F 27.7 °F 21.2 °F 60% 30.00 in 10.0 mi West 6.9 mph - N/A   Clear
3:15 AM 33.8 °F 27.7 °F 21.2 °F 60% 30.00 in 10.0 mi WNW 6.9 mph - N/A   Clear
3:35 AM 33.8 °F 27.0 °F 19.4 °F 56% 30.00 in 10.0 mi WNW 8.1 mph - N/A   Clear
3:55 AM 33.8 °F 28.6 °F 19.4 °F 56% 30.00 in 10.0 mi West 5.8 mph - N/A   Clear
4:15 AM 33.8 °F 28.6 °F 19.4 °F 56% 30.01 in 10.0 mi WSW 5.8 mph - N/A   Clear
4:35 AM 33.8 °F 27.7 °F 19.4 °F 56% 30.03 in 10.0 mi WSW 6.9 mph - N/A   Clear
4:55 AM 33.8 °F 27.7 °F 19.4 °F 56% 30.03 in 10.0 mi West 6.9 mph - N/A   Clear
5:15 AM 32.0 °F 27.5 °F 19.4 °F 60% 30.03 in 10.0 mi West 4.6 mph - N/A   Clear
5:35 AM 32.0 °F 27.5 °F 19.4 °F 60% 30.03 in 10.0 mi SW 4.6 mph - N/A   Clear
5:55 AM 32.0 °F 25.6 °F 19.4 °F 60% 30.03 in 10.0 mi West 6.9 mph - N/A   Clear
6:15 AM 30.2 °F 24.3 °F 19.4 °F 64% 30.04 in 10.0 mi West 5.8 mph - N/A   Clear
6:35 AM 30.2 °F 25.4 °F 19.4 °F 64% 30.05 in 10.0 mi West 4.6 mph - N/A   Clear
6:55 AM 32.0 °F 26.4 °F 21.2 °F 64% 30.05 in 10.0 mi WNW 5.8 mph - N/A   Clear
7:15 AM 33.8 °F 28.6 °F 21.2 °F 60% 30.05 in 10.0 mi West 5.8 mph - N/A   Clear
7:35 AM 33.8 °F 28.6 °F 21.2 °F 60% 30.05 in 10.0 mi WNW 5.8 mph - N/A   Clear
7:55 AM 35.6 °F 29.9 °F 21.2 °F 56% 30.05 in 10.0 mi WNW 6.9 mph - N/A   Clear
8:15 AM 37.4 °F 31.4 °F 21.2 °F 52% 30.04 in 10.0 mi WNW 8.1 mph - N/A   Clear
8:35 AM 39.2 °F 33.0 °F 21.2 °F 49% 30.04 in 10.0 mi WNW 9.2 mph - N/A   Clear
8:55 AM 39.2 °F 34.2 °F 21.2 °F 49% 30.04 in 10.0 mi WNW 6.9 mph - N/A   Clear
9:15 AM 41.0 °F 34.7 °F 21.2 °F 45% 30.05 in 10.0 mi WNW 10.4 mph - N/A   Clear
9:35 AM 41.0 °F 35.2 °F 21.2 °F 45% 30.04 in 10.0 mi WNW 9.2 mph - N/A   Clear
9:55 AM 42.8 °F 39.3 °F 21.2 °F 42% 30.04 in 10.0 mi WNW 5.8 mph - N/A   Clear
10:15 AM 42.8 °F 38.6 °F 21.2 °F 42% 30.04 in 10.0 mi West 6.9 mph - N/A   Clear
10:35 AM 44.6 °F 40.7 °F 21.2 °F 39% 30.04 in 10.0 mi NNW 6.9 mph - N/A   Clear
10:55 AM 44.6 °F 39.2 °F 21.2 °F 39% 30.04 in 10.0 mi West 10.4 mph - N/A   Clear
11:15 AM 44.6 °F 41.4 °F 23.0 °F 43% 30.03 in 10.0 mi SW 5.8 mph - N/A   Clear
11:35 AM 44.6 °F 39.7 °F 21.2 °F 39% 30.01 in 10.0 mi West 9.2 mph - N/A   Clear
11:55 AM 46.4 °F 42.4 °F 23.0 °F 40% 30.01 in 10.0 mi SW 8.1 mph - N/A   Clear
12:15 PM 46.4 °F 41.5 °F 24.8 °F 43% 30.00 in 10.0 mi West 10.4 mph - N/A   Clear
12:35 PM 46.4 °F 42.4 °F 23.0 °F 40% 29.99 in 10.0 mi WSW 8.1 mph - N/A   Clear
12:55 PM 48.2 °F - 24.8 °F 40% 29.98 in 10.0 mi West 11.5 mph - N/A   Clear
1:15 PM 46.4 °F 41.5 °F 23.0 °F 40% 29.97 in 10.0 mi WSW 10.4 mph - N/A   Clear
1:35 PM 48.2 °F - 24.8 °F 40% 29.96 in 10.0 mi WSW 10.4 mph 18.4 mph N/A   Clear
1:55 PM 48.2 °F - 24.8 °F 40% 29.96 in 10.0 mi WSW 10.4 mph - N/A   Clear
2:15 PM 48.2 °F - 24.8 °F 40% 29.95 in 10.0 mi SSW 9.2 mph - N/A   Clear
2:35 PM 48.2 °F - 24.8 °F 40% 29.95 in 10.0 mi WSW 10.4 mph 16.1 mph N/A   Clear
2:55 PM 48.2 °F - 24.8 °F 40% 29.95 in 10.0 mi SW 12.7 mph - N/A   Clear
3:15 PM 48.2 °F - 24.8 °F 40% 29.94 in 10.0 mi WSW 9.2 mph - N/A   Clear
3:35 PM 48.2 °F - 24.8 °F 40% 29.94 in 10.0 mi WSW 10.4 mph - N/A   Clear
3:55 PM 48.2 °F - 24.8 °F 40% 29.94 in 10.0 mi SW 6.9 mph - N/A   Clear
4:15 PM 46.4 °F 42.4 °F 24.8 °F 43% 29.94 in 10.0 mi SW 8.1 mph - N/A   Clear
4:35 PM 46.4 °F 44.3 °F 24.8 °F 43% 29.94 in 10.0 mi SW 4.6 mph - N/A   Clear
4:55 PM 46.4 °F 43.5 °F 24.8 °F 43% 29.94 in 10.0 mi SW 5.8 mph - N/A   Clear
5:15 PM 46.4 °F 44.3 °F 24.8 °F 43% 29.94 in 10.0 mi SW 4.6 mph - N/A   Clear
5:35 PM 44.6 °F 41.4 °F 24.8 °F 46% 29.94 in 10.0 mi SW 5.8 mph - N/A   Clear
5:55 PM 44.6 °F 40.7 °F 24.8 °F 46% 29.95 in 10.0 mi SSW 6.9 mph - N/A   Clear
6:15 PM 44.6 °F 41.4 °F 24.8 °F 46% 29.94 in 10.0 mi SSW 5.8 mph - N/A   Clear
6:35 PM 44.6 °F 41.4 °F 24.8 °F 46% 29.94 in 10.0 mi SW 5.8 mph - N/A   Clear
6:55 PM 44.6 °F 40.7 °F 26.6 °F 49% 29.95 in 10.0 mi SSW 6.9 mph - N/A   Clear
7:15 PM 44.6 °F 41.4 °F 26.6 °F 49% 29.95 in 10.0 mi SSW 5.8 mph - N/A   Clear
7:35 PM 42.8 °F 39.3 °F 26.6 °F 53% 29.95 in 10.0 mi SSW 5.8 mph - N/A   Clear
7:55 PM 42.8 °F 39.3 °F 26.6 °F 53% 29.96 in 10.0 mi SW 5.8 mph - N/A   Clear
8:15 PM 42.8 °F 39.3 °F 26.6 °F 53% 29.96 in 10.0 mi SW 5.8 mph - N/A   Clear
8:35 PM 42.8 °F 40.1 °F 26.6 °F 53% 29.95 in 10.0 mi WSW 4.6 mph - N/A   Clear
8:55 PM 42.8 °F 40.1 °F 26.6 °F 53% 29.96 in 10.0 mi SSW 4.6 mph - N/A   Clear
9:15 PM 42.8 °F 38.6 °F 26.6 °F 53% 29.96 in 10.0 mi SW 6.9 mph - N/A   Clear
9:35 PM 42.8 °F 38.6 °F 26.6 °F 53% 29.95 in 10.0 mi SW 6.9 mph - N/A   Clear
9:55 PM 42.8 °F 39.3 °F 28.4 °F 57% 29.95 in 10.0 mi SW 5.8 mph - N/A   Clear
10:15 PM 42.8 °F 39.3 °F 26.6 °F 53% 29.94 in 10.0 mi SW 5.8 mph - N/A   Clear
10:35 PM 41.0 °F 37.1 °F 28.4 °F 61% 29.95 in 10.0 mi SSW 5.8 mph - N/A   Clear
10:55 PM 39.2 °F 35.0 °F 28.4 °F 65% 29.95 in 10.0 mi SSW 5.8 mph - N/A   Clear
11:15 PM 39.2 °F 35.9 °F 28.4 °F 65% 29.95 in 10.0 mi South 4.6 mph - N/A   Scattered Clouds
11:35 PM 39.2 °F 37.0 °F 28.4 °F 65% 29.94 in 10.0 mi SSW 3.5 mph - N/A   Overcast
11:55 PM 39.2 °F 37.0 °F 28.4 °F 65% 29.95 in 10.0 mi South 3.5 mph - N/A   Overcast